Location: PSU-Greenbush Astrophysical Observatory
(37.5140°N, 94.9880°W)
Time: 14:17:40
(UTC-06:00)

deb Explorer IX - Pass Details

Date: 01 February 2020
Orbit: 549 x 1099 km, 38.8° (Epoch: 18 February)

Event Time Altitude Azimuth Distance (km) Brightness Sun altitude
Rises 19:16:44 0° 246° (WSW) 3,295 ? -18.7°
Reaches altitude 10° 19:19:04 10° 245° (WSW) 2,447 ? -19.1°
Maximum altitude 19:24:57 74° 161° (SSE) 971 ? -20.3°
Enters shadow 19:27:39 38° 85° (E) 1,450 ? -20.8°
Drops below altitude 10° 19:31:46 10° 78° (ENE) 2,818 - -21.6°
Sets 19:34:38 0° 76° (ENE) 3,827 - -22.2°
